Meath Environmental Platform

Observations for Trim Patrick St

Time AQI Temp °C Hum % Pres Pa CO μg/m³ H₂S μg/m³ NO μg/m³ NO₂ μg/m³ O₃ μg/m³ SO₂ μg/m³ PM1 μg/m³ PM2.5 μg/m³ PM10 μg/m³
Monday 3 August 2026
10:46 2 26.4 53 69,371 0 0 2.56 11.88 62.93 7.45 3.71 10 11
10:45 2 26.4 51 69,410 0 0 2.32 12.15 64.44 6.3 5.43 11.68 12.85
10:44 2 26.4 53 69,464 0 0 2.56 8.28 63.26 7.13 5.43 10.79 11.87
10:43 2 26.3 52 69,479 0 0 2.46 7 63.96 6.71 5.43 10.1 11.11
10:42 2 26.3 53 69,561 0 0 2.52 9.3 64.34 7.38 5.43 11.55 12.71
10:40 2 26.3 54 69,810 0.01 0 2.6 0 50.55 5.52 5.43 11.48 12.62
10:39 2 26.3 53 69,970 0.03 0 2.38 13.12 61.92 6.96 6.29 11.52 12.67
10:38 2 26.2 54 70,079 0.05 0 2.53 7.86 59.66 6.84 7.14 12.22 13.44
10:37 2 26.1 53 70,215 0.06 0 2.52 14.67 55.56 6.63 6.29 10.74 11.82
10:36 2 26.1 53 70,337 0.02 0 2.48 11.5 59.08 7.53 5.43 10.78 11.86
10:35 2 26 53 70,560 0.04 0 2.46 13.29 59.76 7.21 4.57 9.98 10.98
10:34 2 25.9 54 70,735 0.04 0 2.61 13.65 55.49 5.78 6.29 11.45 12.6
10:32 2 25.7 54 71,250 0.04 0 2.55 13.25 59.4 6.17 8 12.95 14.24
10:31 2 25.6 54 71,478 0.03 0 2.59 15.52 55.06 6.29 4.57 9.91 10.9
10:30 2 25.6 55 71,694 0.01 0 2.61 8.93 60.99 7.15 6.29 10.64 11.7
10:29 2 25.5 54 72,135 0 0 2.42 14.8 56.14 6.15 6.29 10.65 11.72
10:28 2 25.4 56 72,483 0 0 2.65 8.58 59.76 5.99 5.43 11.27 12.4
10:27 2 25.2 56 72,949 0 0 2.58 11.58 55.26 5.51 5.43 10.53 11.58
10:26 2 25.1 58 73,330 0 0 2.53 13.28 56.78 5.5 4.57 9.66 10.62
10:24 2 24.7 57 73,895 0 0 2.18 14.6 55.48 4.88 5.43 10.48 11.53